[[{"header":{"parameterUnit":"m.s-1","parameterCategory":1,"la1":30.2991,"la2":30.254,"lo1":-89.0895,"lo2":-89.0444,"dy":0.0017,"dx":0.0017,"nx":28,"ny":28,"refTime":"2025-12-01T03:00:00:Z","depth":0,"parameterNumber":2,"parameterNumberName":"U-component_of_WINDS"},"data":[0,0,0,0,0,0,0,0,0,0,0,0,0,0,0,0,0,0,0,0,0,0,0,0,0,0,0,0,0,0,0,0,0,0,0,0,0,0,0,0,0,0,0,0,0,0,0,0,0,0,0,0,0,0,0,0,0,0,-3.0889,-3.089,0,-3.0951,-3.0952,-3.0953,-3.0889,-3.0886,-3.0884,-3.0882,-3.0945,-3.0948,-3.0952,0,0,0,0,0,0,0,0,0,0,0,0,0,-3.0715,-3.0718,-3.0889,-3.089,-3.0891,-3.0951,-3.0952,-3.0953,-3.0889,-3.0886,-3.0883,-3.0881,-3.0943,-3.0948,-3.0953,0,0,0,0,0,0,0,0,0,0,0,0,0,-3.0785,-3.0719,-3.0889,-3.0866,-3.0865,-3.0951,-3.0952,-3.0953,-3.089,-3.0886,-3.0883,-3.0879,-3.0942,-3.0947,-3.0953,-3.1064,0,0,-3.0972,-3.0974,0,0,0,0,0,0,0,0,-3.0781,-3.0791,-3.0869,-3.0868,-3.0867,-3.0908,-3.0913,-3.099,-3.0891,-3.088,-3.0882,-3.0877,-3.0935,-3.0942,-3.0961,-3.1067,-3.107,-3.0972,-3.0976,-3.0978,-3.098,0,0,0,0,0,0,0,-3.0776,-3.0788,-3.0914,-3.087,-3.0869,-3.0853,-3.0859,-3.0928,-3.0928,-3.0881,-3.0877,-3.0885,-3.0934,-3.0956,-3.0962,-3.1071,-3.0972,-3.0977,-3.0981,-3.0983,-3.1271,-3.1274,0,0,0,0,0,0,-3.0774,-3.0785,-3.0912,-3.0915,-3.0814,-3.0859,-3.0865,-3.0899,-3.0927,-3.0928,-3.0888,-3.0882,-3.0948,-3.0956,-3.0964,-3.1097,-3.0978,-3.0984,-3.0987,-3.1267,-3.1271,-3.1276,0,0,0,0,0,0,-3.077,-3.0786,-3.0909,-3.0849,-3.0863,-3.0866,-3.0904,-3.0902,-3.0924,-3.0932,-3.0932,-3.091,-3.0945,-3.0956,-3.104,-3.1098,-3.0987,-3.0992,-3.1262,-3.1268,-3.1274,-3.1362,0,0,0,0,0,0,-3.0766,-3.0785,-3.0828,-3.085,-3.0867,-3.0985,-3.0907,-3.0906,-3.0934,-3.0927,-3.0953,-3.0954,-3.0943,-3.1031,-3.1046,-3.1104,-3.0997,-3.1257,-3.1265,-3.1272,-3.1354,-3.137,-3.1384,0,0,0,0,0,-3.076,-3.085,-3.083,-3.0846,-3.092,-3.0988,-3.0997,-3.0983,-3.0939,-3.0982,-3.0987,-3.0953,-3.1089,-3.1041,-3.1056,-3.1117,-3.1253,-3.1262,-3.1271,-3.1347,-3.1367,-3.1384,0,0,0,0,0,0,-3.0834,-3.0853,-3.0831,-3.0931,-3.0959,-3.0977,-3.1031,-3.1005,-3.1045,-3.1036,-3.1016,-3.1022,-3.1112,-3.1122,-3.1068,-3.1226,-3.1164,-3.1176,-3.1216,-3.1235,-3.125,-3.1246,-3.1002,0,0,0,0,0,-3.0862,-3.0916,-3.0929,-3.1016,-3.1031,-3.1029,-3.1058,-3.1044,-3.1071,-3.1083,-3.1094,-3.1122,-3.117,-3.1203,-3.1248,-3.1354,-3.1359,-3.1404,-3.1419,-3.1431,-3.1443,-3.15,-3.152,-3.1306,-3.1306,-3.1306,0,0,-3.0921,-3.0938,-3.0973,-3.1032,-3.1051,-3.1107,-3.1039,-3.1101,-3.1142,-3.1092,-3.1172,-3.1181,-3.1211,-3.1306,-3.1349,-3.1318,-3.1503,-3.1443,-3.1453,-3.1458,-3.1512,-3.1532,-3.155,-3.1312,-3.1311,-3.131,0,0,-3.1057,-3.1075,-3.115,-3.117,-3.1201,-3.1198,-3.1216,-3.1239,-3.1243,-3.1323,-3.1287,-3.1335,-3.1419,-3.1442,-3.1464,-3.1607,-3.1577,-3.1622,-3.1702,-3.1758,-3.1775,-3.179,-3.1841,-3.186,-3.1633,-3.1634,-3.1634,0,-3.1126,-3.1209,-3.1191,-3.1256,-3.1283,-3.124,-3.1315,-3.1336,-3.138,-3.1399,-3.1363,-3.1468,-3.1485,-3.1585,-3.162,-3.1639,-3.1659,-3.162,-3.1774,-3.1789,-3.1802,-3.1851,-3.1871,-3.1639,-3.1638,-3.1638,-3.1637,0,-3.1293,-3.1351,-3.1408,-3.1451,-3.1484,-3.1554,-3.1546,-3.1582,-3.1565,-3.1566,-3.1648,-3.1666,-3.1714,-3.1736,-3.1721,-3.1835,-3.1814,-3.1777,-3.1714,-3.1828,-3.1874,-3.1893,-3.1647,-3.1645,-3.1643,-3.1642,0,0,-3.148,-3.1511,-3.1533,-3.1552,-3.1581,-3.1626,-3.1693,-3.174,-3.1771,-3.1802,-3.1858,-3.193,-3.1895,-3.1921,-3.1906,-3.1955,-3.2068,-3.1911,-3.1912,-3.1941,-3.2195,-3.2224,-3.2246,-3.2047,-3.2051,-3.2054,-3.2192,0,-3.1617,-3.1735,-3.172,-3.1832,-3.1886,-3.1844,-3.1903,-3.1927,-3.193,-3.1975,-3.1977,-3.2029,-3.1978,-3.1994,-3.204,-3.2044,-3.2119,-3.2034,-3.21,-3.2102,-3.2095,-3.227,-3.2301,-3.2431,-3.221,-3.2213,-3.2215,0,-3.1794,-3.1831,-3.1949,-3.197,-3.1992,-3.2045,-3.2087,-3.213,-3.2157,-3.2155,-3.2183,-3.216,-3.2227,-3.2162,-3.2253,-3.2196,-3.2221,-3.2228,-3.2232,-3.2239,-3.2167,-3.2282,-3.2472,-3.2492,-3.2243,-3.2241,-3.2239,0,-3.1919,-3.1999,-3.208,-3.2097,-3.2123,-3.2162,-3.2174,-3.2197,-3.2226,-3.2262,-3.228,-3.2324,-3.2348,-3.2382,-3.2371,-3.2324,-3.2465,-3.2399,-3.2465,-3.2466,-3.2498,-3.2497,-3.2697,-3.2513,-3.2513,-3.2512,-3.2512,0,-3.2075,-3.2149,-3.2136,-3.2186,-3.2268,-3.2249,-3.233,-3.2337,-3.2357,-3.2408,-3.2374,-3.2422,-3.2404,-3.245,-3.2441,-3.2519,-3.253,-3.253,-3.2527,-3.2534,-3.2534,-3.2552,-3.2543,-3.2517,-3.2516,-3.2515,-3.2514,0,-3.223,-3.2224,-3.231,-3.2327,-3.2333,-3.2392,-3.2407,-3.2454,-3.2453,-3.2517,-3.253,-3.2529,-3.2582,-3.2574,-3.2632,-3.2627,-3.2723,-3.2709,-3.2715,-3.2712,-3.278,-3.2774,-3.2999,-3.3027,-3.2824,-3.2826,-3.2828,0,-3.233,-3.2386,-3.241,-3.2441,-3.2456,-3.2507,-3.2537,-3.252,-3.2552,-3.2585,-3.2628,-3.2677,-3.2717,-3.2803,-3.2807,-3.2851,-3.2838,-3.2914,-3.2845,-3.285,-3.284,-3.2838,-3.2843,-3.2928,-3.293,-3.2932,-3.2934,0,-3.251,-3.2504,-3.2548,-3.2591,-3.2627,-3.266,-3.269,-3.2717,-3.2703,-3.274,-3.2794,-3.2824,-3.2884,-3.2934,-3.2975,-3.2987,-3.2959,-3.2955,-3.2973,-3.2981,-3.2983,-3.2984,-3.2754,-3.295,-3.2949,-3.2948,-3.2947,-3.2946,-3.2641,-3.2689,-3.2713,-3.2763,-3.2783,-3.2811,-3.2856,-3.286,-3.2905,-3.2953,-3.2939,-3.3,-3.3024,-3.3076,-3.3093,-3.314,-3.3112,-3.3138,-3.3144,-3.3151,-3.316,-3.2974,-3.3147,-3.3147,-3.3146,-3.3146,-3.3145,0,-3.282,-3.2833,-3.2879,-3.2921,-3.296,-3.2929,-3.296,-3.2995,-3.3049,-3.3073,-3.3112,-3.3174,-3.3221,-3.3229,-3.3274,-3.331,-3.3298,-3.3323,-3.332,-3.3324,-3.3182,-3.3162,-3.3332,-3.3332,-3.3332,-3.3331,-3.3331,-3.3331,-3.2917,-3.2997,-3.2994,-3.3082,-3.3094,-3.3154,-3.3174,-3.32,-3.3219,-3.329,-3.3329,-3.3333,-3.3351,-3.3397,-3.3439,-3.344,-3.3458,-3.3488,-3.3484,-3.3352,-3.3334,-3.3316,-3.3298,-3.3492,-3.3493,-3.3622,-3.3623,-3.3624]},{"header":{"parameterUnit":"m.s-1","parameterCategory":1,"la1":30.2991,"la2":30.254,"lo1":-89.0895,"lo2":-89.0444,"dy":0.0017,"dx":0.0017,"nx":28,"ny":28,"refTime":"2025-12-01T03:00:00:Z","depth":0,"parameterNumber":3,"parameterNumberName":"V-component_of_WINDS"},"data":[0,0,0,0,0,0,0,0,0,0,0,0,0,0,0,0,0,0,0,0,0,0,0,0,0,0,0,0,0,0,0,0,0,0,0,0,0,0,0,0,0,0,0,0,0,0,0,0,0,0,0,0,0,0,0,0,0,0,-6.3448,-6.3449,0,-6.3524,-6.3524,-6.3525,-6.345,-6.3447,-6.3444,-6.3442,-6.3514,-6.3519,-6.3524,0,0,0,0,0,0,0,0,0,0,0,0,0,-6.3233,-6.3237,-6.3448,-6.3449,-6.345,-6.3523,-6.3524,-6.3525,-6.3451,-6.3447,-6.3444,-6.344,-6.3513,-6.3518,-6.3524,0,0,0,0,0,0,0,0,0,0,0,0,0,-6.3319,-6.3238,-6.3448,-6.3421,-6.342,-6.3523,-6.3524,-6.3526,-6.3451,-6.3447,-6.3443,-6.3439,-6.3511,-6.3518,-6.3525,-6.3656,0,0,-6.3546,-6.3549,0,0,0,0,0,0,0,0,-6.3314,-6.3327,-6.3424,-6.3423,-6.3422,-6.3473,-6.3475,-6.3569,-6.3453,-6.3439,-6.3441,-6.3436,-6.3504,-6.3511,-6.3535,-6.366,-6.3663,-6.3547,-6.3551,-6.3554,-6.3556,0,0,0,0,0,0,0,-6.3308,-6.3323,-6.3477,-6.3426,-6.3424,-6.3404,-6.3411,-6.3493,-6.3495,-6.344,-6.3435,-6.3445,-6.3502,-6.3528,-6.3536,-6.3664,-6.3547,-6.3553,-6.3557,-6.356,-6.3899,-6.3903,0,0,0,0,0,0,-6.3306,-6.3319,-6.3475,-6.348,-6.3356,-6.3411,-6.342,-6.3461,-6.3494,-6.3495,-6.3449,-6.3441,-6.3519,-6.3528,-6.3538,-6.3694,-6.3554,-6.3561,-6.3565,-6.3894,-6.39,-6.3905,0,0,0,0,0,0,-6.3302,-6.3321,-6.3472,-6.3398,-6.3416,-6.342,-6.3467,-6.3465,-6.3491,-6.3501,-6.35,-6.3475,-6.3515,-6.3529,-6.3628,-6.3695,-6.3564,-6.357,-6.3888,-6.3896,-6.3902,-6.4007,0,0,0,0,0,0,-6.3296,-6.3319,-6.3371,-6.34,-6.342,-6.3562,-6.3471,-6.3469,-6.3504,-6.3495,-6.3526,-6.3526,-6.3513,-6.3618,-6.3635,-6.3703,-6.3576,-6.3882,-6.3892,-6.39,-6.3997,-6.4016,-6.4033,0,0,0,0,0,-6.3288,-6.3397,-6.3374,-6.3393,-6.3485,-6.3566,-6.3578,-6.3561,-6.351,-6.356,-6.3566,-6.3525,-6.3685,-6.3628,-6.3647,-6.3718,-6.3878,-6.3889,-6.3899,-6.3989,-6.4013,-6.4033,0,0,0,0,0,0,-6.3374,-6.34,-6.3375,-6.3496,-6.353,-6.3553,-6.3617,-6.3587,-6.3635,-6.3624,-6.36,-6.3608,-6.3712,-6.3725,-6.3661,-6.3846,-6.3773,-6.3788,-6.3835,-6.3857,-6.3875,-6.3869,-6.3582,0,0,0,0,0,-6.3408,-6.3473,-6.3491,-6.3596,-6.3615,-6.3613,-6.3648,-6.3633,-6.3666,-6.3679,-6.3692,-6.3725,-6.3782,-6.382,-6.3873,-6.3998,-6.4003,-6.4056,-6.4074,-6.4089,-6.4102,-6.4168,-6.4191,-6.394,-6.394,-6.394,0,0,-6.3477,-6.3499,-6.3541,-6.3614,-6.3638,-6.3705,-6.3626,-6.37,-6.3749,-6.369,-6.3785,-6.3795,-6.3829,-6.3942,-6.3992,-6.3956,-6.4172,-6.4103,-6.4114,-6.4119,-6.4181,-6.4205,-6.4226,-6.3948,-6.3946,-6.3945,0,0,-6.3637,-6.3661,-6.375,-6.3776,-6.3814,-6.3813,-6.3834,-6.3862,-6.3868,-6.3963,-6.392,-6.3976,-6.4076,-6.4101,-6.4128,-6.4296,-6.426,-6.4314,-6.4408,-6.4472,-6.4492,-6.4509,-6.4569,-6.459,-6.4327,-6.4328,-6.4328,0,-6.3717,-6.3818,-6.38,-6.3878,-6.391,-6.3861,-6.3951,-6.3976,-6.4029,-6.4052,-6.401,-6.4133,-6.4153,-6.427,-6.4311,-6.4335,-6.4357,-6.4311,-6.4491,-6.4508,-6.4524,-6.458,-6.4603,-6.4334,-6.4333,-6.4332,-6.4332,0,-6.3915,-6.3985,-6.4053,-6.4107,-6.4147,-6.423,-6.4222,-6.4265,-6.4245,-6.4247,-6.4344,-6.4365,-6.4422,-6.4448,-6.443,-6.4563,-6.4539,-6.4495,-6.442,-6.4555,-6.4607,-6.4628,-6.4343,-6.4341,-6.4339,-6.4337,0,0,-6.4132,-6.4174,-6.42,-6.4223,-6.4261,-6.4314,-6.4394,-6.445,-6.4486,-6.4524,-6.4589,-6.4674,-6.4634,-6.4663,-6.4647,-6.4704,-6.4835,-6.4652,-6.4652,-6.4685,-6.4981,-6.5014,-6.5039,-6.4811,-6.4815,-6.4818,-6.4978,0,-6.4293,-6.4434,-6.4419,-6.4552,-6.4616,-6.457,-6.4639,-6.4669,-6.4673,-6.4726,-6.4728,-6.4789,-6.4731,-6.4748,-6.4802,-6.4807,-6.4894,-6.4796,-6.487,-6.4873,-6.4863,-6.5067,-6.5102,-6.5252,-6.4998,-6.5002,-6.5004,0,-6.4499,-6.4546,-6.4686,-6.4714,-6.474,-6.4803,-6.4853,-6.4905,-6.4936,-6.4935,-6.4968,-6.4941,-6.5019,-6.4944,-6.505,-6.4984,-6.5013,-6.502,-6.5025,-6.5031,-6.4947,-6.5078,-6.53,-6.5322,-6.5037,-6.5034,-6.5032,0,-6.4643,-6.474,-6.4837,-6.4858,-6.4893,-6.4938,-6.4954,-6.4981,-6.5016,-6.5058,-6.508,-6.5131,-6.5159,-6.5198,-6.5185,-6.5132,-6.5294,-6.5217,-6.5294,-6.5294,-6.533,-6.5328,-6.5559,-6.535,-6.5349,-6.5349,-6.5348,0,-6.4824,-6.4912,-6.4902,-6.4961,-6.5057,-6.5038,-6.5133,-6.5143,-6.5167,-6.5226,-6.5188,-6.5244,-6.5224,-6.5277,-6.5267,-6.5356,-6.5369,-6.5369,-6.5365,-6.5372,-6.5372,-6.5391,-6.538,-6.5355,-6.5353,-6.5352,-6.5351,0,-6.5001,-6.4998,-6.51,-6.5124,-6.5132,-6.5202,-6.5221,-6.5276,-6.5276,-6.5351,-6.5367,-6.5367,-6.5429,-6.542,-6.5487,-6.548,-6.5591,-6.5575,-6.5581,-6.5577,-6.5654,-6.5647,-6.5905,-6.5938,-6.5707,-6.571,-6.5711,0,-6.5117,-6.5183,-6.5215,-6.5252,-6.5272,-6.5333,-6.5368,-6.5351,-6.5389,-6.543,-6.5479,-6.5537,-6.5583,-6.5682,-6.5687,-6.5738,-6.5722,-6.5809,-6.573,-6.5735,-6.5723,-6.5719,-6.5725,-6.5825,-6.5828,-6.583,-6.5832,0,-6.5322,-6.5318,-6.5371,-6.5424,-6.5467,-6.5508,-6.5544,-6.5576,-6.5562,-6.5606,-6.5669,-6.5705,-6.5774,-6.5832,-6.588,-6.5893,-6.586,-6.5857,-6.5877,-6.5885,-6.5886,-6.5886,-6.5624,-6.5851,-6.5849,-6.5848,-6.5847,-6.5846,-6.5472,-6.5528,-6.556,-6.562,-6.5645,-6.568,-6.5732,-6.5739,-6.5792,-6.5849,-6.5835,-6.5906,-6.5933,-6.5995,-6.6014,-6.6067,-6.6035,-6.6065,-6.6072,-6.608,-6.6089,-6.5878,-6.6076,-6.6075,-6.6075,-6.6074,-6.6074,0,-6.5675,-6.5693,-6.5748,-6.5801,-6.5848,-6.5814,-6.5851,-6.5892,-6.5956,-6.5986,-6.6032,-6.6103,-6.6158,-6.6168,-6.622,-6.6261,-6.6247,-6.6275,-6.6272,-6.6275,-6.6115,-6.6092,-6.6285,-6.6285,-6.6285,-6.6285,-6.6285,-6.6285,-6.5786,-6.588,-6.5879,-6.5984,-6.6,-6.607,-6.6095,-6.6126,-6.6149,-6.6232,-6.6278,-6.6284,-6.6305,-6.6358,-6.6407,-6.6407,-6.6428,-6.6463,-6.6458,-6.6308,-6.6287,-6.6266,-6.6245,-6.6467,-6.6468,-6.6613,-6.6615,-6.6616]}]]